Location: Nitra
(0.0000°N, 18.0833°E)
Time: 10:25:35
(UTC+01:00)

Cosmos 2278 - Pass Details

Date: 25 September 2022
Orbit: 841 x 851 km, 71.1° (Epoch: 28 November)

Event Time Altitude Azimuth Distance (km) Brightness Sun altitude
Rises 19:10:19 0° 177° (S) 3,414 6.8 -7.8°
Reaches altitude 10° 19:13:02 10° 168° (SSE) 2,476 6.0 -8.4°
Maximum altitude 19:18:03 32° 105° (ESE) 1,411 4.4 -9.7°
Drops below altitude 10° 19:23:02 10° 43° (NE) 2,464 5.7 -10.9°
Sets 19:25:42 0° 34° (NNE) 3,395 6.5 -11.6°
